Regional Weather Roundup
Issued by NWS

Home | Current Version | Previous Version | Graphics & Text | Print | Product List | Glossary On
Versions: 1 2 3 4 5 6 7 8 9 10 11 12 13 14 15 16 17 18 19 20 21 22 23 24 25 26 27 28 29 30 31 32 33 34 35 36 37 38 39 40 41 42 43 44 45 46 47 48 49 50
000
ASUS44 KMEG 102100
RWRTN
TENNESSEE HOURLY STATE WEATHER ROUNDUP
NATIONAL WEATHER SERVICE MEMPHIS TN
300 PM CST SAT DEC 10 2016

TNZ002-004-019-021-049-052-054-088>092-102200-
WEST TENNESSEE

CITY           SKY/WX    TMP DP  RH WIND       PRES   REMARKS
MEMPHIS INTL   MOSUNNY   46  12  25 SE3       30.42F
NWS MEMPHIS      N/A     46 N/A N/A MISG        N/A
JACKSON        SUNNY     43  16  33 S6        30.44F
DYERSBURG      SUNNY     39  18  41 S6        30.44F WCI  35
PARIS          SUNNY     37  12  35 CALM      30.45F
$$

TNZ008-025-027-028-033-062-065-066-102200-
NORTH MIDDLE TENNESSEE

CITY           SKY/WX    TMP DP  RH WIND       PRES   REMARKS
NASHVILLE      MOSUNNY   41  12  30 VRB3      30.49S
CLARKSVILLE    SUNNY     38  13  35 CALM      30.47F
SMYRNA         SUNNY     41  13  31 CALM      30.49F
CROSSVILLE     SUNNY     37  12  35 E3        30.42S
$$

TNZ061-075-076-078-094-096-097-102200-
SOUTH MIDDLE TENNESSEE

CITY           SKY/WX    TMP DP  RH WIND       PRES   REMARKS
WINCHESTER     SUNNY     39  12  33 NW5       30.44S
SHELBYVILLE    SUNNY     43  18  36 CALM      30.46F
$$

TNZ017-018-042-046-047-102200-
NORTHEAST TENNESSEE

CITY           SKY/WX    TMP DP  RH WIND       PRES   REMARKS
TRI CITIES     MOSUNNY   36  11  35 S6        30.45F WCI  31
$$

TNZ012-013-036-069-073-074-102200-
CENTRAL EAST TENNESSEE

CITY           SKY/WX    TMP DP  RH WIND       PRES   REMARKS
KNOXVILLE      MOSUNNY   41  11  29 N3        30.44F
OAK RIDGE      SUNNY     39  11  31 CALM      30.46F
GATLINBURG     SUNNY     37  10  32 CALM      30.44F
$$

TNZ083-085-099-102200-
SOUTHEAST TENNESSEE

CITY           SKY/WX    TMP DP  RH WIND       PRES   REMARKS
CHATTANOOGA    MOSUNNY   44  13  28 E5        30.46S
$$

SKY/WX REPORTED AS FAIR MEANS FEW OR NO CLOUDS BELOW
12 THOUSAND FEET.





USA.gov is the U.S. government's official web portal to all federal, state and local government web resources and services.